Location: Columbia
(38.9520°N, 92.3340°W)
Time: 03:46:11
(UTC-05:00)

Daily predictions for brighter satellites

Satellite Brightness Start Highest point End
(mag) Time Altitude Azimuth Time Altitude Azimuth Time Altitude Azimuth
USA 234 3.9 00:23:19 47° NE 00:23:26 47° NE 00:29:38 10° NW
CZ-2C R/B 4.2 00:25:58 10° N 00:29:29 32° NW 00:29:29 32° NW
Cosmos 2082 Rocket 4.5 00:55:13 15° NE 00:55:13 15° NE 00:56:28 10° NE
Mayak 1.8 01:20:23 10° NNW 01:20:56 13° NNW 01:20:56 13° NNW
Lacrosse 4 Rocket 4.4 01:26:07 10° NNW 01:26:59 15° N 01:26:59 15° N
ADEOS Rocket 4.0 01:30:11 10° N 01:34:58 44° NNW 01:34:58 44° NNW
ATLAS 3B R/B 4.2 02:02:29 26° E 02:02:29 26° E 02:07:02 10° NE
Resurs 1-4 Rocket 4.4 01:58:31 10° NE 02:00:39 15° ENE 02:00:39 15° ENE
Cosmos 1980 Rocket 3.3 02:15:25 10° NNW 02:19:13 41° N 02:19:13 41° N
Cosmos 1697 Rocket 4.2 02:15:21 10° NNW 02:18:05 30° NNW 02:18:05 30° NNW
Cosmos 2082 Rocket 3.4 02:37:03 34° NNW 02:37:03 34° NNW 02:40:58 10° N
SL-16 R/B 3.8 02:35:54 10° N 02:40:51 30° ENE 02:43:41 20° ESE
NPP 4.4 02:37:16 10° NNE 02:41:24 48° NE 02:41:24 48° NE
SL-16 R/B 3.2 02:42:24 47° E 02:43:22 51° ENE 02:49:24 10° N
Lacrosse 5 rocket 4.1 02:45:08 14° NNW 02:45:08 14° NNW 02:46:55 10° N
Cosmos 1634 Rocket 4.1 02:47:32 69° N 02:47:32 69° N 02:53:00 10° N
Cosmos 2322 Rocket 3.6 02:47:39 10° N 02:52:47 35° ENE 02:55:33 22° ESE
Cosmos 2279 Rocket 4.2 02:53:47 62° E 02:53:49 62° E 02:59:59 10° NNE
H-2A R/B 4.1 02:53:34 10° NNE 02:56:07 34° NNE 02:56:07 34° NNE
ATLAS CENTAUR R/B 4.5 02:57:39 10° N 03:00:18 15° NE 03:03:04 10° E
Cosmos 1833 Rocket 4.3 03:01:03 23° NW 03:01:03 23° NW 03:04:59 10° N
SL-08 R/B 4.2 03:02:51 49° NNE 03:02:51 49° NNE 03:06:33 10° N
Cosmos 2026 Rocket 4.0 02:56:14 10° N 03:02:15 81° NNW 03:02:15 81° NNW
CBERS-1 4.5 03:03:58 10° NNE 03:08:03 58° N 03:08:03 58° N
Cosmos 1937 Rocket 4.0 03:07:23 10° NNW 03:11:24 54° N 03:11:24 54° N
USA 238 DEB 3.5 03:16:07 76° WSW 03:16:39 83° NW 03:23:39 10° NNE
USA 238 3.5 03:16:13 76° WSW 03:16:45 84° NW 03:23:45 10° NNE
ADEOS II 4.4 03:13:41 10° NE 03:17:07 17° E 03:19:52 12° SE
AQUA 4.5 03:13:20 10° N 03:16:57 51° N 03:16:57 51° N
Cosmos 990 Rocket 4.5 03:14:08 10° NNW 03:18:04 53° NNW 03:18:04 53° NNW
CZ-2D R/B 2.1 03:18:13 10° NNE 03:23:13 78° N 03:23:13 78° N
DNEPR-1 R/B 4.4 03:25:49 47° ENE 03:25:49 47° ENE 03:29:14 10° NE
Meteor 1-22 Rocket 4.1 03:20:17 10° N 03:26:11 88° WSW 03:26:12 88° WSW
Cosmos 2228 4.0 03:22:53 10° N 03:25:49 42° N 03:25:49 42° N
Cosmos 44 Rocket 3.4 03:25:16 10° NNW 03:30:23 78° NE 03:30:23 78° NE
IRS-1C 4.1 03:31:26 10° N 03:36:35 66° WNW 03:36:35 66° WNW
Cosmos 1814 Rocket 4.3 03:37:24 53° NW 03:37:24 53° NW 03:42:03 10° N
ARIANE 5 R/B 2.4 03:33:04 10° NNE 03:38:20 82° ESE 03:38:39 77° SSE
Cosmos 2266 Rocket 4.4 03:33:06 10° N 03:39:08 59° E 03:42:50 24° SSE
Cosmos 1805 4.5 03:36:57 10° N 03:39:25 38° N 03:39:25 38° N
Resurs 1-4 Rocket 2.2 03:36:44 10° N 03:41:44 57° WNW 03:41:44 57° WNW
Cosmos 1602 Rocket 4.3 03:43:58 42° ESE 03:44:28 44° E 03:48:35 10° NNE
Helios 1A Rocket 3.2 03:44:32 10° NNE 03:48:32 67° E 03:48:32 67° E
Spot 4 Rocket 3.9 03:45:18 10° N 03:50:28 75° WNW 03:50:51 71° WSW
ATLAS 3B R/B 2.9 03:49:44 46° WSW 03:51:36 59° NW 03:58:28 10° NNE
Cosmos 540 Rocket 3.3 03:51:29 69° S 03:52:06 83° ESE 03:57:17 10° NNE
Timation 2 Rocket 4.2 03:51:31 45° W 03:52:17 47° WNW 03:58:03 10° NNE
SJ 16-02 2.2 03:48:50 10° N 03:53:08 49° ENE 03:56:04 19° SE
NOSS 3-2 (C) 3.4 03:52:27 54° SSW 03:53:52 78° ESE 04:00:19 10° NE
Cosmos 1626 Rocket 3.6 03:54:22 65° ESE 03:54:39 68° E 03:58:58 10° NNE
Cosmos 2058 Rocket 3.7 03:50:56 10° NNW 03:54:18 45° NW 03:54:18 45° NW
Cosmos 1733 4.0 03:51:37 10° N 03:55:24 49° E 03:56:01 44° ESE
Cosmos 841 Rocket 3.7 03:55:30 51° WNW 03:55:38 51° WNW 04:00:44 10° N
MOZ.5/SAFIR/RUBIN 5/SL-8 4.1 04:02:25 49° WNW 04:02:25 49° WNW 04:06:28 10° NNW
Cosmos 2360 Rocket 2.8 03:56:56 10° NNW 04:02:28 55° ENE 04:07:58 10° SE
Cosmos 2150 Rocket 4.3 03:59:05 10° NNW 04:04:03 48° W 04:04:03 48° W
Cosmos 1980 Rocket 4.4 04:00:54 10° WNW 04:00:57 10° WNW 04:00:57 10° WNW
Cosmos 1655 Rocket 4.4 03:59:26 10° NNW 04:05:24 43° W 04:06:08 41° WSW
Cosmos 292 Rocket 4.1 04:05:37 48° WNW 04:05:47 48° WNW 04:10:27 10° N
CENTAUR R/B 3.3 04:04:11 25° SSE 04:07:08 41° ESE 04:13:15 10° NE
NOSS 3-2 (A) 3.5 04:05:43 45° WSW 04:07:22 62° NW 04:13:49 10° NNE
Cosmos 1378 3.2 04:12:14 67° SE 04:12:35 74° E 04:16:21 10° N
Cosmos 1953 2.4 04:09:04 10° N 04:13:08 77° E 04:14:19 45° SSE
IRS-1D 4.3 04:09:56 10° N 04:14:38 35° WNW 04:15:16 34° W
Centaur D-1A AC-35 4.3 04:15:14 29° SSW 04:17:37 35° SSE 04:38:43 10° ESE
PSLV R/B 3.6 04:20:06 52° NNE 04:20:06 52° NNE 04:22:39 10° ENE
CZ-2D R/B 3.4 04:15:40 10° N 04:19:48 66° WNW 04:20:26 56° WSW
USA 215 4.4 04:15:49 10° ENE 04:21:36 33° SE 04:26:12 15° S
Aureole 2 Rocket 2.3 04:18:55 10° NNW 04:22:36 84° WSW 04:22:49 76° S
SL-16 R/B 2.6 04:19:48 10° NW 04:24:59 37° WSW 04:25:27 37° WSW
Cosmos 2219 Rocket 4.5 04:21:22 10° N 04:25:57 25° NE 04:30:31 10° ESE
SL-16 R/B 3.6 04:27:29 24° W 04:27:29 24° W 04:32:12 10° NW
ERBS 3.5 04:30:30 30° NW 04:30:44 30° NW 04:33:47 10° NNE
Cosmos 1238 Rocket 4.4 04:25:36 10° S 04:32:11 69° E 04:38:44 10° NNE
Cosmos 2322 Rocket 2.9 04:31:49 10° NW 04:36:42 31° WSW 04:37:14 30° WSW
COSMOS 2428 3.9 04:33:11 10° N 04:38:39 45° ENE 04:44:03 10° SE
ATLAS CENTAUR R/B 1.5 04:35:14 10° NW 04:39:43 71° WSW 04:44:26 10° SSE
Meteor 2-5 Rocket 4.1 04:37:44 10° S 04:43:10 63° E 04:48:43 10° NNE
Cosmos 1758 4.1 04:39:55 10° NNW 04:43:23 30° W 04:43:23 30° W
Cosmos 1825 Rocket 3.6 04:41:53 16° S 04:45:14 76° E 04:49:34 10° N
UNKNOWN OBJECT B 3.8 04:44:18 10° NNW 04:47:32 27° WNW 04:48:01 26° W
ADEOS 4.2 04:44:02 10° N 04:48:50 39° WNW 04:51:14 25° WSW
Cosmos 1470 3.1 04:45:03 10° NNW 04:48:50 43° W 04:50:19 29° SW
Gblst 52 Del rocket 4.4 04:43:39 10° WNW 04:49:32 63° SW 04:56:14 10° SE
Delta 2 Rocket 4.2 04:46:29 25° WSW 04:49:47 64° S 04:55:25 10° E
Meteor 1-16 Rocket 4.3 04:45:17 10° N 04:50:52 77° E 04:56:16 10° SSE
Cosmos 1707 3.0 04:50:16 31° SW 04:51:40 47° W 04:55:26 10° N
BREEZE-M DEB 4.1 04:53:56 38° NW 04:54:06 38° NNW 04:56:25 10° NE
ADEOS II 2.3 04:52:00 10° N 04:57:07 54° WNW 05:00:49 18° SW
Cosmos 1553 Rocket 4.1 04:52:40 10° S 04:59:04 82° E 05:05:29 10° N
PSLV R/B 3.6 04:54:57 10° NNE 04:59:10 78° ESE 05:03:20 10° S
CZ-2D R/B 4.2 05:01:20 10° NW 05:02:47 11° WNW 05:04:13 10° WNW
Cosmos 1125 Rocket 4.0 05:00:16 10° NW 05:05:09 38° WSW 05:09:59 10° SSW
Okean O Rocket 3.0 05:04:53 10° NNE 05:08:58 38° E 05:12:59 10° SSE
Cosmos 1953 Rocket 3.5 05:10:14 10° SSW 05:14:41 72° W 05:19:07 10° N
Cosmos 2084 4.1 05:15:13 10° SSW 05:19:26 52° ESE 05:23:27 10° NE
Meteor 1-31 Rocket 3.7 05:21:35 10° NNE 05:25:20 49° E 05:29:02 10° S
Cosmos 2322 4.2 05:22:55 10° NW 05:28:09 38° WSW 05:33:22 10° S
Cosmos 1758 Rocket 4.1 05:25:20 10° SSW 05:29:24 39° WNW 05:33:32 10° N
SJ 16-02 3.1 05:29:06 10° WNW 05:31:14 13° W 05:32:56 11° WSW
Cosmos 2292 Rocket 3.0 05:31:43 10° NNW 05:34:43 41° W 05:37:30 10° SSW
CZ-4B DEB 4.3 05:33:52 10° NNE 05:39:26 85° ESE 05:44:56 10° SSW
USA 161 1.6 05:37:24 10° SSE 05:40:22 79° ENE 05:43:11 10° N
PSLV R/B 4.0 05:36:56 10° N 05:40:35 47° WNW 05:44:09 10° SSW
CZ-4B R/B 3.3 05:38:17 10° N 05:42:09 43° WNW 05:45:49 10° SW
Cosmos 1745 Rocket 4.0 05:36:49 10° NNW 05:42:58 63° W 05:49:08 10° S
IDEFIX/ARIANE 42P 3.9 05:38:50 10° NNE 05:43:49 43° E 05:48:47 10° S
BREEZE-M TANK 4.2 05:41:18 10° SSW 05:44:42 20° SSE 05:46:54 10° E
Cosmos 1315 Rocket 2.8 05:41:10 10° S 05:45:10 84° W 05:49:10 10° N
Cosmos 2360 Rocket 3.5 05:42:08 10° WNW 05:45:57 19° W 05:49:45 10° SW
S3M 4.3 05:40:49 10° SSW 05:46:40 47° W 05:52:33 10° N
Cosmos 1400 Rocket 3.6 05:43:50 10° SW 05:47:26 33° WNW 05:51:06 10° N
